Orbital Elements at Epoch 2459000.5 (2020-May-31.0) TDB
Reference: JPL 14 (heliocentric ecliptic J2000)
Element | Value | Uncertainty (1-sigma) | Units |
e | .05870376849296 | 6.3205e-08 | |
a | 2.722776817353807 | 3.3126e-08 | au |
q | 2.562939557409871 | 1.613e-07 | au |
i | 4.413699274044998 | 5.3103e-06 | deg |
node | 74.49466554473797 | 8.0324e-05 | deg |
peri | 77.8703850807902 | 9.4309e-05 | deg |
M | 151.1867612154154 | 5.2073e-05 | deg |
tp | 2458311.327791304080 (2018-Jul-11.82779130) | 0.00023138 | TDB |
period | 1641.029896639086 4.49 | 2.9948e-05 8.199e-08 | d yr |
n | .2193744311040881 | 4.0034e-09 | deg/d |
Q | 2.882614077297743 | 3.507e-08 | au |
|
| | Orbit Determination Parameters
Additional Information
|